Location: Bismarck
(46.7731°N, 100.8200°W)
Time: 21:25:47
(UTC-05:00)

Daily predictions for brighter satellites

Satellite Brightness Start Highest point End
(mag) Time Altitude Azimuth Time Altitude Azimuth Time Altitude Azimuth
Cosmos 1371 Rocket 4.2 21:52:24 10° NNW 21:57:43 62° ENE 22:02:55 10° SE
Okean 2 4.3 21:55:54 10° SSE 21:59:29 30° E 22:03:05 10° NNE
Lacrosse 5 rocket 3.9 21:56:22 10° NW 22:00:01 23° N 22:03:42 10° NE
Cosmos 1441 Rocket 3.3 21:57:29 10° S 22:01:08 54° E 22:04:48 10° NNE
Cosmos 923 Rocket 4.3 21:58:44 10° SSW 22:04:04 78° WNW 22:09:24 10° NNE
Meteor 1-19 Rocket 4.4 21:58:25 10° S 22:04:14 88° W 22:09:59 10° N
ARGOS 3.9 21:59:23 10° SE 22:04:23 40° ENE 22:09:27 10° N
Resurs 01 Rocket 4.0 22:03:32 10° SW 22:07:00 22° W 22:10:29 10° NW
Meteor 1-29 2.9 22:03:36 10° NNE 22:07:00 89° ESE 22:10:22 10° SSW
ERS-1 Rocket 3.0 22:02:46 10° SSE 22:07:44 70° ENE 22:12:45 10° N
Meteor 1-23 Rocket 4.4 22:02:34 10° S 22:08:01 57° E 22:13:31 10° NNE
NOAA 11 4.4 22:06:23 10° SSE 22:11:44 62° ENE 22:17:06 10° N
Terra 3.7 22:09:11 10° E 22:12:07 16° ENE 22:15:03 10° NNE
SPOT 5 3.3 22:09:47 10° SE 22:13:48 40° ENE 22:17:55 10° N
CENTAUR R/B 4.1 22:07:10 10° NW 22:14:30 43° WSW 22:22:16 10° S
H-2A R/B 4.1 22:16:03 10° E 22:18:57 17° ENE 22:21:52 10° NNE
Nadezhda 1 Rocket 4.1 22:16:50 10° S 22:23:13 89° E 22:29:40 10° N
Meteor 1-15 Rocket 4.2 22:17:58 10° N 22:23:36 81° E 22:29:10 10° SSE
MetOp-B 4.2 22:18:48 10° SSE 22:24:07 72° ENE 22:29:29 10° N
Cosmos 2278 3.9 22:20:22 10° NNW 22:26:04 62° ENE 22:31:16 12° SE
COSMOS 2406 3.8 22:20:34 10° SW 22:26:15 64° WNW 22:31:56 10° NNE
Cosmos 2082 Rocket 3.2 22:24:12 10° SSE 22:28:45 26° ESE 22:33:19 10° NE
ISS -3.9 22:29:13 10° WSW 22:32:31 76° SSE 22:35:49 10° ENE
MOS 1-B Rocket 4.1 22:26:54 10° SSE 22:32:44 85° ENE 22:39:25 10° NNW
Cosmos 2154 Rocket 4.1 22:28:55 10° N 22:35:19 87° W 22:41:41 10° S
Cosmos 1238 Rocket 4.3 22:30:23 10° SSW 22:37:09 78° W 22:43:32 10° N
SL-24 DEB 4.4 22:35:50 12° SSE 22:40:01 56° E 22:44:35 10° N
Cosmos 1624 Rocket 4.2 22:35:37 10° NNW 22:40:53 73° WSW 22:45:57 11° SSE
ASTEX 1 4.0 22:36:34 10° S 22:41:23 57° W 22:46:14 10° NNW
SL-27 R/B 3.8 22:39:00 10° SW 22:42:31 43° WNW 22:46:02 10° N
Cosmos 2228 3.3 22:38:55 10° N 22:43:07 50° ENE 22:46:20 16° SSE
H-2A R/B 2.3 22:40:27 14° SE 22:44:32 54° ENE 22:49:30 10° N
YAOGAN 6 4.3 22:42:30 10° SSW 22:45:36 29° W 22:48:45 10° NNW
Cosmos 921 Rocket 3.1 22:41:16 10° NNW 22:45:47 83° ENE 22:49:22 15° SSE
Cosmos 2369 3.7 22:40:08 10° NNW 22:45:55 84° ENE 22:50:41 15° SSE
Cosmos 1697 Rocket 3.3 22:41:07 10° NNW 22:46:33 47° ENE 22:50:57 15° SE
Meteor 1-4 Rocket 3.6 22:43:30 10° N 22:46:46 31° ENE 22:48:46 18° SE
SL-16 R/B 4.3 22:48:24 10° N 22:52:01 17° NE 22:55:37 10° E
Cosmos 1656 3.7 22:48:27 10° NNW 22:53:55 71° ENE 22:58:04 18° SE
SL-08 RB Rocket 3.6 22:50:33 15° SSE 22:54:16 84° ENE 22:58:46 10° NNW
Cosmos 967 Rocket 4.4 22:48:06 10° SSW 22:54:19 71° ESE 23:00:34 10° NE
Cosmos 1437 Rocket 3.6 22:53:21 10° NNW 22:57:03 47° W 23:00:44 10° S
Cosmos 1892 Rocket 3.5 22:52:47 10° S 22:57:13 81° E 23:01:39 10° N
TELKOM 3 3.5 22:55:34 10° WNW 22:57:52 53° SSW 22:59:15 25° SE
Cosmos 2056 Rocket 4.1 22:55:08 10° NNW 23:00:10 53° WSW 23:04:39 13° S
Cosmos 1271 Rocket 4.4 22:59:46 10° NNE 23:02:49 21° ENE 23:04:38 16° ESE
Cosmos 1602 Rocket 4.4 23:01:02 20° SE 23:03:14 32° E 23:07:04 10° NNE
Cosmos 1833 Rocket 3.0 23:00:38 11° S 23:05:44 45° ESE 23:11:05 10° NE
Cosmos 1606 Rocket 4.3 23:02:11 10° NNW 23:06:21 48° W 23:10:23 11° SSW
Cosmos 2341 Rocket 4.3 23:01:55 10° NNW 23:08:14 68° W 23:14:23 11° S
NOSS 8 (E) 4.4 23:09:13 10° SSW 23:12:39 69° SE 23:16:30 10° NE
Cosmos 1726 Rocket 4.4 23:11:55 10° NNW 23:16:03 45° W 23:19:45 12° SSW
Cosmos 1953 4.3 23:14:36 10° NNE 23:17:23 18° ENE 23:19:02 14° E
Cosmos 1420 Rocket 4.1 23:12:59 10° NNW 23:18:15 66° ENE 23:21:26 24° SE
Cosmos 2218 Rocket 4.0 23:13:27 10° N 23:19:39 80° E 23:24:05 20° SSE
Cosmos 1515 4.5 23:16:16 10° SSW 23:19:57 50° WNW 23:23:42 10° N
Cosmos 1066 Rocket 4.2 23:16:09 15° S 23:20:41 73° E 23:26:21 10° NNE
COSMOS 2487 2.5 23:17:34 12° SSW 23:20:48 82° WNW 23:24:24 10° NNE
USA 245 4.0 23:19:45 17° SW 23:20:57 24° W 23:22:56 10° NW
Iridium 43 4.5 23:21:44 10° NNW 23:23:49 39° W 23:24:26 30° SW
Cosmos 1809 Rocket 4.4 23:18:09 10° N 23:24:15 82° E 23:28:27 21° SSE
CARTOSAT-1 3.5 23:27:22 28° SSE 23:29:36 75° ENE 23:33:56 10° N
Cosmos 2058 Rocket 4.0 23:26:38 10° NNW 23:30:50 44° W 23:34:09 15° SSW
Cosmos 1452 Rocket 3.7 23:26:57 10° NNW 23:32:12 67° WSW 23:35:24 24° S
Cosmos 2360 Rocket 4.5 23:29:23 10° N 23:32:37 15° NE 23:35:51 10° ENE
Tiangong 2 1.6 23:30:17 10° WSW 23:33:11 39° S 23:33:11 39° S
Cosmos 1766 3.4 23:29:39 10° N 23:33:33 60° E 23:35:01 34° SE
Landsat 7 3.9 23:31:20 23° S 23:34:16 72° WSW 23:39:03 10° NNW
Cosmos 1980 Rocket 2.3 23:29:15 10° NNW 23:34:55 66° ENE 23:38:08 26° SE
Cosmos 1544 3.9 23:31:34 10° N 23:34:58 36° ENE 23:35:56 30° ESE
SPOT 1/Viking Rocket 4.2 23:32:18 17° S 23:36:09 49° W 23:41:10 10° NNW
Lacrosse 5 rocket 3.2 23:36:14 10° NW 23:40:25 32° NNE 23:44:36 10° E
Meteor 1-21 4.4 23:39:12 26° SSE 23:42:16 56° E 23:47:54 10° NNE
Meteor 2-16 Rocket 4.4 23:37:27 10° N 23:43:38 75° E 23:47:10 27° SSE
Cosmos 2322 Rocket 3.4 23:40:05 10° NNW 23:45:15 33° NE 23:48:59 17° ESE
Terra 1.9 23:46:50 28° S 23:49:18 72° WSW 23:54:05 10° NNW
Nadezhda 3 Rocket 4.3 23:46:50 27° SSE 23:50:09 51° E 23:56:16 10° NNE
USA 267 4.0 23:46:23 10° ENE 23:51:51 28° SE 23:52:59 26° SE
Cosmos 1812 Rocket 3.6 23:49:17 10° N 23:53:48 82° W 23:55:42 34° S
H-2A R/B 2.4 23:52:19 30° S 23:54:28 65° WSW 23:59:00 10° NNW
PSLV R/B 2.9 23:56:05 68° SW 23:56:14 70° WSW 23:59:03 10° NNW
